TimePDT,TemperatureF,Dew PointF,Humidity,Sea Level PressureIn,VisibilityMPH,Wind Direction,Wind SpeedMPH,Gust SpeedMPH,PrecipitationIn,Events,Conditions,WindDirDegrees,DateUTC
12:52 AM,66.0,48.9,54,29.80,10.0,NNW,16.1,24.2,N/A,,Clear,330,2013-05-06 07:52:00
1:52 AM,66.0,46.9,50,29.81,10.0,NW,13.8,-,N/A,,Clear,320,2013-05-06 08:52:00
2:52 AM,64.9,46.9,52,29.81,10.0,NNW,15.0,-,N/A,,Clear,340,2013-05-06 09:52:00
3:52 AM,66.0,46.9,50,29.83,10.0,NNW,15.0,-,N/A,,Clear,330,2013-05-06 10:52:00
4:52 AM,64.9,46.0,50,29.84,10.0,North,10.4,-,N/A,,Clear,360,2013-05-06 11:52:00
5:52 AM,63.0,46.9,56,29.86,10.0,North,4.6,-,N/A,,Clear,10,2013-05-06 12:52:00
6:52 AM,63.0,48.0,58,29.88,10.0,Calm,Calm,-,N/A,,Clear,0,2013-05-06 13:52:00
7:52 AM,68.0,48.0,49,29.90,10.0,SSE,4.6,-,N/A,,Clear,160,2013-05-06 14:52:00
8:52 AM,71.1,48.0,44,29.91,10.0,Calm,Calm,-,N/A,,Partly Cloudy,0,2013-05-06 15:52:00
9:52 AM,75.9,46.9,36,29.90,10.0,SSE,6.9,-,N/A,,Scattered Clouds,150,2013-05-06 16:52:00
10:52 AM,75.9,46.0,35,29.91,10.0,Variable,5.8,-,N/A,,Mostly Cloudy,0,2013-05-06 17:52:00
11:52 AM,75.9,46.0,35,29.90,10.0,Variable,4.6,-,N/A,,Overcast,0,2013-05-06 18:52:00
12:52 PM,79.0,45.0,30,29.89,10.0,Calm,Calm,-,N/A,,Scattered Clouds,0,2013-05-06 19:52:00
1:52 PM,79.0,43.0,28,29.87,10.0,NW,6.9,-,N/A,,Mostly Cloudy,310,2013-05-06 20:52:00
2:52 PM,82.9,46.0,27,29.86,10.0,WSW,11.5,21.9,N/A,,Mostly Cloudy,250,2013-05-06 21:52:00
3:52 PM,81.0,46.0,29,29.84,10.0,West,10.4,-,N/A,,Partly Cloudy,260,2013-05-06 22:52:00
4:52 PM,79.0,46.0,31,29.84,10.0,SSW,6.9,-,N/A,,Mostly Cloudy,200,2013-05-06 23:52:00
5:52 PM,77.0,46.9,34,29.85,10.0,NW,11.5,-,N/A,,Mostly Cloudy,310,2013-05-07 00:52:00
6:52 PM,73.9,43.0,33,29.86,10.0,WNW,8.1,-,N/A,,Clear,290,2013-05-07 01:52:00
7:52 PM,69.1,42.1,38,29.87,10.0,WNW,5.8,-,N/A,,Clear,300,2013-05-07 02:52:00
8:52 PM,69.1,42.1,38,29.89,10.0,NNW,10.4,-,N/A,,Clear,340,2013-05-07 03:52:00
9:52 PM,66.9,41.0,39,29.91,10.0,NW,5.8,-,N/A,,Clear,320,2013-05-07 04:52:00
10:52 PM,66.0,41.0,40,29.92,10.0,North,11.5,-,N/A,,Clear,350,2013-05-07 05:52:00
11:52 PM,64.9,39.0,39,29.93,10.0,NNW,9.2,-,N/A,,Clear,330,2013-05-07 06:52:00